Terminal Aerodrome Forecast
Issued by NWS Grand Junction, CO

Home | Current Version | Previous Version | Text Only | Print | Product List | Glossary On
Versions: 1 2 3 4 5 6 7 8 9 10 11 12 13 14 15 16 17 18 19 20 21 22 23 24 25 26 27 28 29 30 31 32 33 34 35 36 37 38 39 40 41 42 43
000
FTUS45 KGJT 281122
TAFGJT
TAF
KGJT 281122Z 2812/2912 14006KT P6SM BKN110
     FM281700 32006KT P6SM SCT110 SCT200
     FM282100 27010G20KT P6SM VCTS SCT080CB BKN120
     FM290300 04009KT P6SM VCSH SCT080 BKN120
     FM290600 10006KT P6SM FEW200=

USA.gov is the U.S. government's official web portal to all federal, state and local government web resources and services.